Location: Napier
(39.4830°S, 176.9170°E)
Time: 03:10:31
(UTC+12:00)

CORIOLIS - Pass Details

Date: 15 August 2020
Orbit: 817 x 839 km, 98.7° (Epoch: 19 September)

Event Time Altitude Azimuth Distance (km) Brightness Sun altitude
Rises 18:22:28 0° 163° (SSE) 3,398 7.1 -9.9°
Reaches altitude 10° 18:24:53 10° 158° (SSE) 2,461 6.3 -10.3°
Maximum altitude 18:30:16 58° 79° (E) 977 4.2 -11.3°
Drops below altitude 10° 18:35:36 10° 0° (N) 2,444 6.7 -12.4°
Sets 18:37:59 0° 356° (N) 3,372 7.5 -12.8°
